Location: Crescent
(42.8242°N, 73.7329°W)
Time: 15:44:45
(UTC+00:00)

Explorer 11/Cluster Stage 4 - Pass Details

Date: 25 February 2026
Orbit: 463 x 1176 km, 28.8° (Epoch: 9 March)

Event Time Altitude Azimuth Distance (km) Brightness Sun altitude
Rises 17:05:13 0° 246° (WSW) 3,357 10.1 38.3°
Reaches altitude 10° 17:08:58 10° 224° (SW) 2,251 9.6 38.3°
Maximum altitude 17:11:52 15° 191° (S) 1,807 9.9 38.3°
Drops below altitude 10° 17:14:30 10° 156° (SSE) 1,999 9.7 38.3°
Sets 17:17:31 0° 132° (SE) 2,771 9.8 38.2°
